Imperial, NE

1:29 PM MDT on June 25, 2017 (GMT -0600)
Imperial Municipal

Weather History for KIML - December, 2014

Change the Weather History Date:

Sunday, December 14, 2014

  Actual Average Record
Temperature  
Mean Temperature 35 °F 28 °F  
Max Temperature 40 °F 41 °F 72 °F (1921)
Min Temperature 29 °F 15 °F -30 °F (1901)
Degree Days  
Heating Degree Days 30 37  
Month to date heating degree days 398 498  
Cooling Degree Days 0 0  
Month to date cooling degree days 0 0  
Year to date cooling degree days 955 963  
Moisture  
Dew Point 33 °F    
Average Humidity 93    
Maximum Humidity 100    
Minimum Humidity 85    
Precipitation  
Precipitation 0.27 in 0.01 in 0.80 in (1902)
Sea Level Pressure  
Sea Level Pressure 29.74 in    
Wind  
Wind Speed 15 mph (NNW)    
Max Wind Speed 30 mph    
Max Gust Speed 37 mph    
Visibility 3 miles    
Events Fog , Rain , Snow    
T = Trace of Precipitation, MM = Missing Value Source: NWS Daily Summary

Daily Weather History Graph

Daily Weather History Graph

Search for Another Location

Airport or City:

Trip Planner

Search our weather history database for the weather conditions in past years. The results will help you decide how hot, cold, wet, or windy it might be!

Date:

Astronomy

Dec. 14, 2014 Rise Set
Actual Time 7:02 AM MST 4:20 PM MST
Civil Twilight 6:31 AM MST 4:51 PM MST
Nautical Twilight 5:56 AM MST 5:25 PM MST
Astronomical Twilight 5:23 AM MST 5:58 PM MST
Moon No Moon Rise 11:53 AM MST (12/14)
Length of Visible Light 10h 19m
Length of Day
9h 18m
Waning Gibbous, 48% of the Moon is Illuminated
Dec 14
Waning Gibbous
Dec 21
New
Dec 28
First Quarter
Jan 4
Full
Jan 13
Last Quarter

Hourly Weather History & Observations

Time (MST) Temp. Windchill Dew Point Humidity Pressure Visibility Wind Dir Wind Speed Gust Speed Precip Events Conditions
12:53 AM 37.9 °F - 36.0 °F 93% 29.68 in 0.5 mi Calm Calm - N/A Fog Fog
1:08 AM 37.0 °F 34.5 °F 35.1 °F 93% 29.66 in 1.0 mi SW 3.5 mph - N/A   Clear
1:14 AM 37.9 °F 34.4 °F 35.1 °F 89% 29.67 in 3.0 mi WSW 4.6 mph - N/A   Clear
1:48 AM 35.6 °F 29.9 °F 33.8 °F 93% 29.68 in 2.5 mi WSW 6.9 mph - N/A   Partly Cloudy
1:53 AM 34.0 °F 29.8 °F 32.0 °F 92% 29.69 in 0.8 mi WSW 4.6 mph - N/A   Mist
2:02 AM 32.0 °F 27.5 °F 32.0 °F 100% 29.68 in 0.2 mi WSW 4.6 mph - N/A Fog Fog
2:35 AM 32.0 °F 27.5 °F 30.0 °F 92% 29.69 in 0.5 mi West 4.6 mph - N/A Fog Fog
2:53 AM 32.0 °F - 30.9 °F 96% 29.70 in 0.8 mi Calm Calm - N/A   Mist
3:08 AM 32.0 °F - 30.0 °F 92% 29.69 in 0.2 mi Calm Calm - N/A Fog Fog
3:53 AM 33.1 °F 30.0 °F 32.0 °F 96% 29.70 in 0.2 mi West 3.5 mph - N/A Fog Fog
4:53 AM 32.0 °F 27.5 °F 30.9 °F 96% 29.72 in 0.2 mi ESE 4.6 mph - N/A Fog Fog
5:53 AM 33.1 °F - 33.1 °F 100% 29.73 in 0.2 mi Calm Calm - N/A Fog Fog
6:53 AM 34.0 °F 31.0 °F 32.0 °F 92% 29.74 in 0.2 mi WSW 3.5 mph - N/A Fog Fog
7:10 AM 34.0 °F - 33.1 °F 96% 29.69 in 0.5 mi Calm Calm - N/A Fog Fog
7:41 AM 35.1 °F 32.2 °F 34.0 °F 96% 29.71 in 0.2 mi West 3.5 mph - N/A Fog Fog
7:53 AM 36.0 °F 32.1 °F 35.1 °F 97% 29.74 in 0.2 mi West 4.6 mph - N/A Fog Fog
8:53 AM 39.0 °F 31.8 °F 37.9 °F 96% 29.73 in 1.0 mi NW 11.5 mph - N/A   Overcast
9:11 AM 39.0 °F 30.3 °F 37.0 °F 93% 29.69 in 0.5 mi NNW 16.1 mph - N/A Fog Fog
9:21 AM 39.0 °F 31.0 °F 37.0 °F 93% 29.70 in 0.2 mi NNW 13.8 mph - N/A Fog Fog
9:53 AM 39.9 °F 32.9 °F 39.0 °F 97% 29.73 in 0.2 mi NNW 11.5 mph - N/A Fog Fog
10:04 AM 39.9 °F 33.4 °F 39.0 °F 97% 29.72 in 0.8 mi NNW 10.4 mph - N/A   Overcast
10:12 AM 39.9 °F 32.5 °F 39.0 °F 97% 29.72 in 2.0 mi NW 12.7 mph - N/A   Overcast
10:25 AM 39.9 °F 33.9 °F 39.0 °F 97% 29.73 in 3.0 mi NW 9.2 mph - N/A   Overcast
10:37 AM 39.0 °F 31.0 °F 37.0 °F 93% 29.71 in 1.8 mi NW 13.8 mph - N/A   Overcast
10:53 AM 37.9 °F 29.6 °F 37.0 °F 97% 29.74 in 0.8 mi NW 13.8 mph - N/A   Overcast
11:05 AM 39.0 °F 30.3 °F 37.0 °F 93% 29.68 in 1.5 mi NNW 16.1 mph - N/A   Overcast
11:18 AM 39.0 °F 30.6 °F 37.0 °F 93% 29.69 in 2.5 mi NNW 15.0 mph - N/A   Overcast
11:28 AM 39.0 °F 31.4 °F 37.0 °F 93% 29.71 in 4.0 mi NNW 12.7 mph - N/A   Overcast
11:36 AM 39.0 °F 31.0 °F 37.0 °F 93% 29.71 in 7.0 mi NNW 13.8 mph - N/A   Overcast
11:53 AM 39.9 °F 30.5 °F 37.0 °F 89% 29.73 in 9.0 mi North 19.6 mph - 0.00 in Rain Light Rain
12:10 PM 39.9 °F 30.5 °F 36.0 °F 86% 29.69 in 10.0 mi North 19.6 mph 26.5 mph 0.00 in Rain Light Rain
12:53 PM 37.9 °F 28.9 °F 35.1 °F 89% 29.74 in 5.0 mi NNW 16.1 mph - 0.02 in Rain Light Rain
1:53 PM 37.0 °F 25.6 °F 34.0 °F 89% 29.75 in 4.0 mi North 24.2 mph - 0.09 in Rain Light Rain
2:02 PM 37.0 °F 24.5 °F 34.0 °F 89% 29.66 in 4.0 mi North 29.9 mph - 0.00 in Rain Light Rain
2:14 PM 37.0 °F 25.9 °F 34.0 °F 89% 29.66 in 4.0 mi North 23.0 mph - 0.01 in Rain Light Rain
2:30 PM 37.0 °F 26.2 °F 34.0 °F 89% 29.67 in 5.0 mi North 21.9 mph 31.1 mph 0.01 in   Overcast
2:53 PM 36.0 °F 23.2 °F 33.1 °F 89% 29.74 in 10.0 mi North 28.8 mph 35.7 mph 0.01 in   Overcast
3:53 PM 36.0 °F 25.3 °F 32.0 °F 86% 29.77 in 10.0 mi North 19.6 mph 29.9 mph 0.00 in Rain Light Rain
4:37 PM 34.0 °F 23.4 °F 30.9 °F 89% 29.73 in 1.8 mi North 17.3 mph - 0.04 in Snow Light Snow
4:53 PM 33.1 °F 22.6 °F 30.9 °F 92% 29.79 in 1.8 mi North 16.1 mph - 0.05 in Snow Light Snow
5:01 PM 33.1 °F 23.9 °F 30.9 °F 92% 29.73 in 2.5 mi North 12.7 mph - 0.01 in Snow Light Snow
5:10 PM 33.1 °F 23.4 °F 30.9 °F 92% 29.73 in 4.0 mi North 13.8 mph - 0.03 in Snow Light Snow
5:45 PM 33.1 °F 22.6 °F 30.9 °F 92% 29.74 in 2.0 mi North 16.1 mph - 0.06 in Snow Light Snow
5:53 PM 33.1 °F 22.2 °F 30.9 °F 92% 29.81 in 1.5 mi North 17.3 mph - 0.07 in Snow Light Snow
6:44 PM 33.1 °F 21.2 °F 30.0 °F 89% 29.74 in 2.5 mi North 20.7 mph 31.1 mph 0.03 in Snow Light Snow
6:53 PM 33.1 °F 22.6 °F 30.0 °F 89% 29.81 in 5.0 mi North 16.1 mph - 0.03 in Snow Light Snow
7:30 PM 32.0 °F 19.2 °F 28.9 °F 88% 29.76 in 9.0 mi North 23.0 mph - 0.00 in   Overcast
7:44 PM 32.0 °F 20.1 °F 30.0 °F 92% 29.76 in 9.0 mi North 19.6 mph - 0.00 in   Overcast
7:53 PM 32.0 °F 20.1 °F 30.0 °F 92% 29.83 in 7.0 mi North 19.6 mph - 0.00 in   Overcast
8:27 PM 32.0 °F 18.1 °F 28.9 °F 88% 29.77 in 1.8 mi North 27.6 mph 33.4 mph 0.00 in Snow Light Snow
8:38 PM 32.0 °F 19.2 °F 28.9 °F 88% 29.77 in 2.5 mi North 23.0 mph - 0.00 in Snow Light Snow
8:45 PM 30.9 °F 18.1 °F 28.9 °F 92% 29.77 in 1.8 mi North 21.9 mph - 0.00 in Snow Light Snow
8:53 PM 30.9 °F 16.4 °F 28.9 °F 92% 29.83 in 1.8 mi North 28.8 mph 32.2 mph 0.00 in Snow Light Snow
8:59 PM 30.9 °F 16.7 °F 28.0 °F 89% 29.78 in 2.0 mi North 27.6 mph 34.5 mph 0.00 in Snow Light Snow
9:06 PM 30.9 °F 16.9 °F 28.0 °F 89% 29.78 in 4.0 mi North 26.5 mph - 0.00 in   Overcast
9:53 PM 30.0 °F 16.0 °F 27.0 °F 88% 29.86 in 6.0 mi North 25.3 mph - 0.00 in   Overcast
10:02 PM 30.0 °F 16.6 °F 27.0 °F 88% 29.80 in 4.0 mi North 23.0 mph - 0.00 in Rain Light Freezing Rain
10:53 PM 30.0 °F 16.3 °F 27.0 °F 88% 29.88 in 4.0 mi North 24.2 mph 32.2 mph 0.00 in Rain Light Freezing Rain
11:04 PM 30.0 °F 15.7 °F 26.1 °F 85% 29.82 in 7.0 mi North 26.5 mph 32.2 mph 0.00 in   Overcast
11:18 PM 30.0 °F 15.2 °F 26.1 °F 85% 29.82 in 10.0 mi North 28.8 mph - 0.00 in   Overcast
11:53 PM 28.9 °F 15.4 °F 26.1 °F 89% 29.88 in 5.0 mi North 21.9 mph - 0.00 in Rain Light Freezing Rain